Cedar Rapids, IA

12:29 PM CDT on July 27, 2017 (GMT -0500)
The Eastern Iowa Airport

Weather History for KCID - June, 2013

Change the Weather History Date:

Tuesday, June 11, 2013

  Actual Average Record
Temperature  
Mean Temperature 72 °F 69 °F  
Max Temperature 85 °F 79 °F 97 °F (1920)
Min Temperature 58 °F 58 °F 41 °F (1903)
Degree Days  
Heating Degree Days 0 1  
Month to date heating degree days 28 19  
Since 1 June heating degree days 28 19  
Since 1 July heating degree days 6997 6856  
Cooling Degree Days 7 5  
Month to date cooling degree days 7 41  
Year to date cooling degree days 81 90  
Since 1 June cooling degree days 7 41  
Growing Degree Days 22 (Base 50)    
Moisture  
Dew Point 64 °F    
Average Humidity 76    
Maximum Humidity 97    
Minimum Humidity 55    
Precipitation  
Precipitation 0.00 in 0.16 in 4.47 in (2015)
Month to date precipitation 0.84 1.70  
Year to date precipitation 21.03 13.14  
Sea Level Pressure  
Sea Level Pressure 29.84 in    
Wind  
Wind Speed 6 mph (SE)    
Max Wind Speed 15 mph    
Max Gust Speed 24 mph    
Visibility 9 miles    
Events      
T = Trace of Precipitation, MM = Missing Value Source: NWS Daily Summary

Daily Weather History Graph

Daily Weather History Graph

Search for Another Location

Airport or City:

Trip Planner

Search our weather history database for the weather conditions in past years. The results will help you decide how hot, cold, wet, or windy it might be!

Date:

Astronomy

Jun. 11, 2013 Rise Set
Actual Time 5:31 AM CDT 8:42 PM CDT
Civil Twilight 4:57 AM CDT 9:16 PM CDT
Nautical Twilight 4:13 AM CDT 10:00 PM CDT
Astronomical Twilight 3:20 AM CDT 10:53 PM CDT
Moon 8:16 AM CDT (6/11) 10:42 PM CDT (6/11)
Length of Visible Light 16h 19m
Length of Day
15h 10m
Waxing Crescent, 8% of the Moon is Illuminated
Jun 11
Waxing Crescent
Jun 16
First Quarter
Jun 23
Full
Jun 29
Last Quarter
Jul 8
New

Hourly Weather History & Observations

Time (CDT) Temp. Heat Index Dew Point Humidity Pressure Visibility Wind Dir Wind Speed Gust Speed Precip Events Conditions
12:52 AM 62.1 °F - 59.0 °F 90% 29.91 in 10.0 mi WSW 3.5 mph - N/A   Clear
1:52 AM 61.0 °F - 59.0 °F 93% 29.91 in 9.0 mi Calm Calm - N/A   Clear
2:52 AM 59.0 °F - 57.9 °F 96% 29.89 in 6.0 mi Calm Calm - N/A   Clear
3:52 AM 59.0 °F - 57.9 °F 96% 29.87 in 7.0 mi SSE 3.5 mph - N/A   Clear
4:52 AM 61.0 °F - 59.0 °F 93% 29.86 in 7.0 mi SSE 5.8 mph - N/A   Clear
5:52 AM 62.1 °F - 60.1 °F 93% 29.88 in 5.0 mi SE 3.5 mph - N/A   Clear
6:52 AM 63.0 °F - 61.0 °F 93% 29.86 in 6.0 mi ESE 5.8 mph - N/A   Clear
7:52 AM 66.0 °F - 62.1 °F 87% 29.88 in 8.0 mi SSE 5.8 mph - N/A   Mostly Cloudy
8:52 AM 69.1 °F - 63.0 °F 81% 29.88 in 10.0 mi SSE 5.8 mph - N/A   Overcast
9:52 AM 72.0 °F - 64.0 °F 76% 29.86 in 10.0 mi SE 6.9 mph - N/A   Mostly Cloudy
10:52 AM 75.9 °F - 64.9 °F 69% 29.83 in 10.0 mi SE 9.2 mph - N/A   Clear
11:52 AM 79.0 °F - 66.0 °F 64% 29.83 in 10.0 mi ESE 10.4 mph - N/A   Clear
12:52 PM 82.0 °F 83.8 °F 64.9 °F 56% 29.86 in 10.0 mi ESE 6.9 mph - N/A   Clear
1:52 PM 82.9 °F 84.6 °F 64.9 °F 54% 29.82 in 10.0 mi SSE 10.4 mph - N/A   Clear
2:52 PM 84.0 °F 86.3 °F 66.0 °F 55% 29.82 in 10.0 mi East 5.8 mph - N/A   Clear
3:52 PM 84.0 °F 86.5 °F 66.9 °F 56% 29.82 in 10.0 mi SSE 9.2 mph - N/A   Clear
4:52 PM 84.9 °F 88.2 °F 68.0 °F 57% 29.82 in 10.0 mi SE 5.8 mph - N/A   Clear
5:52 PM 84.9 °F 88.2 °F 68.0 °F 57% 29.80 in 10.0 mi SE 5.8 mph - N/A   Clear
6:52 PM 82.0 °F 84.9 °F 68.0 °F 62% 29.78 in 10.0 mi SE 5.8 mph - N/A   Clear
7:52 PM 81.0 °F 83.8 °F 68.0 °F 65% 29.77 in 10.0 mi ESE 8.1 mph - N/A   Clear
8:52 PM 78.1 °F - 68.0 °F 71% 29.78 in 10.0 mi SE 3.5 mph - N/A   Clear
9:52 PM 75.9 °F - 69.1 °F 79% 29.81 in 10.0 mi South 3.5 mph - N/A   Clear
10:52 PM 75.0 °F - 69.1 °F 82% 29.82 in 10.0 mi Calm Calm - N/A   Clear
11:52 PM 73.0 °F - 68.0 °F 84% 29.81 in 10.0 mi ENE 5.8 mph - N/A   Clear